Weather in Chernyshkovsky

Russia / Volgograd Oblast     48°25′22″N   42°13′29″E
temp.,
°C
wind,
m/s
gust,
m/s
humid.,
%
clouds,
%
prec.,
mm/h
press.,
hPa
HPBL,
m
27 november, sat
sat2700:00−1sse412945 0.0 1023239
03:00−1se411965 0.0 1022224
06:00−1se512944 0.0 1021256
09:000se6149012 0.0 1020404
12:00+4se81471100 0.0 1018605
15:00+4se81479100 0.0 1017535
18:00+4se81591100 0.1 1016450
21:00+5sse81587100 0.1 1015454
28 november, sun
sun2800:00+6sse61485100 0.1 1014437
03:00+5s6129279 0.1 1014292
06:00+5sse41096100 0.3 1013227
09:00+6s51291100 0.6 1014333
12:00+11ssw6117510 0.2 1013525
15:00+11s49750 0.3 1013461
18:00+8s369120 0.0 1015105
21:00+7s3892100 0.0 1015143
29 november, mon
mon2900:00+7sse4109274 0.0 1016212
03:00+6sse41288100 0.0 1015265
06:00+6sse51291100 0.0 1014298
09:00+7se71390100 0.0 1014367
12:00+9sse71179100 0.2 1012395
15:00+10sse81673100 0.3 1010441
18:00+10se8187694 0.3 1008467
21:00+10sse102073100 0.5 1005544
30 november, tue
tue3000:00+11s102062100 0.1 1003812
03:00+10s81694100 3.8 1002477
06:00+11s81695100 3.9 999837
09:00+12sw91491100 5.5 999849
12:00+11wsw7127935 1.3 1000858
15:00+11wsw6107697 1.4 1001785
18:00+8wsw357665 0.0 1001150
21:00+6sw34875 0.0 100058
1 december, wed
wed100:00+5n0086100 0.0 99710
03:00+5n2378100 0.0 99768
06:00+4nw4779100 1.3 998618
09:00+3wnw61067100 1.4 1001734
12:00+3w91262100 0.0 1003971
15:00+3w712555 0.0 10051133
18:00+2w512592 0.0 1006523
21:00+1wsw61361100 0.0 1007461